Location: Ch�teau-Arnoux
(44.0814°N, 6.0027°E)
Time: 13:59:18
(UTC+00:00)

Cosmos 1356 Rocket - Pass Details

Date: 15 November 2019
Orbit: 544 x 598 km, 81.2° (Epoch: 05 December)

Event Time Altitude Azimuth Distance (km) Brightness Sun altitude
Exits shadow 04:11:56 35° 10° (N) 977 4.6 -24.9°
Maximum altitude 04:13:35 63° 77° (ENE) 670 3.8 -24.6°
Drops below altitude 10° 04:17:49 10° 160° (SSE) 1,924 6.3 -23.8°
Sets 04:20:01 0° 163° (SSE) 2,815 7.2 -23.4°
